period_start,C,m1,H,J0,J1,J2,J3,J4,J5,JA,JB,JC,JD,JJ,JK,JN,#
2016-01-29 00:03:15,0.15,7.20,0.00,15.52,20.17,23.95,14.94,51.17,1011.27,2059.04,1647.96,1786.22,1991.28,600.10,608.39,46.89,0000 0000 0000 0000 000000
2016-01-29 00:08:16,0.17,7.21,0.00,15.51,20.17,23.92,14.97,51.28,1011.26,2059.03,1646.76,1785.21,1990.19,599.81,608.24,46.94,0000 0000 0000 0000 000000
2016-01-29 00:13:17,0.16,7.21,0.00,15.49,20.15,23.91,15.00,51.18,1011.26,2059.03,1645.57,1784.20,1989.03,600.04,608.41,46.99,0000 0000 0000 0000 000000
2016-01-29 00:18:19,0.14,7.22,0.00,15.48,20.14,23.89,15.00,51.23,1011.26,2059.05,1644.62,1783.19,1988.01,599.90,608.36,47.04,0000 0000 0000 0000 000000
2016-01-29 00:23:20,0.19,7.23,0.00,15.47,20.13,23.90,14.95,51.44,1011.00,2059.12,1643.42,1782.14,1986.77,600.30,608.48,47.09,0000 0000 0000 0000 000000
2016-01-29 00:28:21,0.16,7.24,0.00,15.43,20.12,23.92,14.91,51.15,1010.74,2059.22,1642.18,1781.09,1985.77,599.70,607.91,47.14,0000 0000 0000 0000 000000
2016-01-29 00:33:23,0.21,7.25,0.00,15.41,20.12,23.89,15.07,51.79,1010.15,2059.40,1640.84,1779.93,1984.36,600.41,608.22,47.19,0000 0000 0000 0000 000000
2016-01-29 00:38:24,0.16,7.26,0.00,15.38,20.10,23.87,14.93,51.97,1009.78,2059.62,1639.86,1778.95,1983.54,599.76,607.48,47.24,0000 0000 0000 0000 000000
2016-01-29 00:43:25,0.20,7.27,0.00,15.32,20.09,23.83,14.89,52.13,1009.49,2059.82,1638.66,1777.82,1982.39,599.70,607.34,47.29,0000 0000 0000 0000 000000
2016-01-29 00:48:27,0.18,7.28,0.00,15.26,20.08,23.83,14.94,52.12,1009.29,2059.86,1637.46,1776.51,1981.14,600.32,607.88,47.34,0000 0000 0000 0000 000000
2016-01-29 00:53:28,0.16,7.29,0.00,15.24,20.07,23.80,14.99,52.20,1009.30,2059.92,1636.37,1775.60,1979.97,600.23,607.93,47.39,0000 0000 0000 0000 000000
2016-01-29 00:58:29,0.19,7.30,0.00,15.19,20.05,23.75,14.95,51.92,1009.29,2059.97,1635.25,1774.18,1978.71,600.20,607.93,47.44,0000 0000 0000 0000 000000
2016-01-29 01:03:30,0.16,7.31,0.00,15.13,20.04,23.76,14.97,52.02,1009.26,2059.96,1634.00,1773.02,1977.43,599.91,607.76,47.49,0000 0000 0000 0000 000000
2016-01-29 01:08:31,0.19,7.32,0.00,15.07,20.02,23.74,14.99,51.99,1009.16,2059.98,1632.86,1771.82,1976.34,600.41,608.28,47.54,0000 0000 0000 0000 000000
2016-01-29 01:13:33,0.28,7.33,0.00,15.00,20.01,23.70,15.00,52.10,1008.92,2059.99,1630.99,1770.32,1974.75,599.94,607.90,47.60,0000 0000 0000 0000 000000
2016-01-29 01:18:34,0.28,7.34,0.00,14.95,19.99,23.70,15.03,52.72,1008.47,2060.00,1628.99,1768.44,1973.01,600.06,607.96,47.65,0000 0000 0000 0000 000000
2016-01-29 01:23:35,0.15,7.36,0.00,14.88,19.97,23.65,15.02,52.98,1008.32,2060.03,1627.62,1767.19,1971.50,600.19,608.03,47.70,0000 0000 0000 0000 000000
2016-01-29 01:28:37,0.14,7.36,0.00,14.84,19.94,23.59,15.00,53.13,1008.32,2060.02,1626.87,1766.05,1970.22,600.16,608.02,47.75,0000 0000 0000 0000 000000
2016-01-29 01:33:38,0.26,7.37,0.00,14.77,19.92,23.56,14.99,52.90,1008.32,2060.03,1625.55,1764.59,1968.65,599.82,607.84,47.80,0000 0000 0000 0000 000000
2016-01-29 01:38:40,0.29,7.39,0.00,14.69,19.90,23.48,15.04,53.02,1008.23,2060.02,1623.76,1762.72,1966.62,600.03,608.27,47.85,0000 0000 0000 0000 000000
2016-01-29 01:43:41,0.18,7.40,0.00,14.62,19.88,23.44,14.93,52.94,1008.30,2060.03,1622.31,1761.39,1965.03,600.03,608.40,47.90,0000 0000 0000 0000 000000
2016-01-29 01:48:42,0.23,7.41,0.00,14.55,19.84,23.38,15.02,53.18,1008.05,2060.08,1620.84,1759.97,1963.47,600.19,608.61,47.95,0000 0000 0000 0000 000000
2016-01-29 01:53:43,0.21,7.42,0.00,14.47,19.82,23.34,14.99,53.21,1008.05,2060.09,1619.27,1758.70,1962.11,600.01,608.49,48.00,0000 0000 0000 0000 000000
2016-01-29 01:58:45,0.34,7.44,0.00,14.40,19.78,23.27,14.98,53.24,1007.96,2060.58,1617.62,1757.12,1960.50,599.62,608.20,48.05,0000 0000 0000 0000 000000
2016-01-29 02:03:46,0.18,7.45,0.00,14.32,19.75,23.18,15.13,53.15,1007.86,2060.96,1616.39,1755.97,1959.23,600.69,609.42,48.10,0000 0000 0000 0000 000000
2016-01-29 02:08:47,0.21,7.46,0.00,14.24,19.71,23.14,15.02,53.17,1007.91,2060.98,1615.20,1754.77,1957.93,600.12,609.12,48.15,0000 0000 0000 0000 000000
2016-01-29 02:13:48,0.16,7.47,0.00,14.18,19.67,23.09,15.01,53.19,1007.84,2060.99,1613.89,1753.75,1956.73,600.01,609.03,48.20,0000 0000 0000 0000 000000
2016-01-29 02:18:50,0.20,7.48,0.00,14.11,19.63,22.99,15.03,53.14,1007.82,2061.00,1612.64,1752.45,1955.32,600.03,609.14,48.25,0000 0000 0000 0000 000000
2016-01-29 02:23:51,0.23,7.49,0.00,14.04,19.59,22.93,15.08,53.28,1007.74,2061.05,1611.18,1750.93,1953.72,600.07,609.32,48.30,0000 0000 0000 0000 000000
2016-01-29 02:28:52,0.22,7.50,0.00,13.96,19.54,22.89,15.03,53.55,1007.80,2061.42,1609.86,1749.89,1952.34,599.97,609.44,48.35,0000 0000 0000 0000 000000
2016-01-29 02:33:54,0.26,7.51,0.00,13.90,19.50,22.81,15.06,53.47,1007.81,2061.88,1608.68,1748.72,1951.10,600.24,609.81,48.40,0000 0000 0000 0000 000000
2016-01-29 02:38:55,0.25,7.53,0.00,13.83,19.45,22.69,15.09,53.32,1007.80,2061.96,1607.13,1747.21,1949.57,600.30,610.14,48.45,0000 0000 0000 0000 000000
2016-01-29 02:43:57,0.27,7.54,0.00,13.76,19.41,22.63,15.08,53.47,1007.77,2061.98,1605.51,1745.43,1947.62,599.82,609.80,48.51,0000 0000 0000 0000 000000
2016-01-29 02:48:58,0.22,7.55,0.00,13.71,19.36,22.59,15.08,53.43,1007.79,2061.99,1603.86,1743.88,1946.16,600.07,610.20,48.56,0000 0000 0000 0000 000000
2016-01-29 02:53:59,0.25,7.56,0.00,13.64,19.30,22.50,15.14,53.58,1007.82,2062.07,1602.35,1742.58,1944.65,600.12,610.30,48.61,0000 0000 0000 0000 000000
2016-01-29 02:59:01,0.21,7.57,0.00,13.58,19.25,22.43,15.06,53.27,1007.81,2062.33,1601.13,1741.30,1943.45,600.11,610.43,48.66,0000 0000 0000 0000 000000
2016-01-29 03:04:02,0.24,7.59,0.00,13.52,19.20,22.35,15.09,53.41,1007.79,2062.83,1599.83,1740.17,1942.19,600.13,610.45,48.71,0000 0000 0000 0000 000000
2016-01-29 03:09:03,0.19,7.60,0.00,13.46,19.15,22.32,15.11,53.68,1007.67,2062.98,1598.69,1739.23,1940.87,600.23,610.70,48.76,0000 0000 0000 0000 000000
2016-01-29 03:14:05,0.17,7.61,0.00,13.37,19.09,22.22,15.11,53.72,1007.52,2062.99,1597.46,1738.10,1939.53,600.01,610.44,48.81,0000 0000 0000 0000 000000
2016-01-29 03:19:06,0.17,7.62,0.00,13.29,19.04,22.19,15.16,53.61,1007.58,2063.01,1596.19,1736.99,1938.37,600.08,610.75,48.86,0000 0000 0000 0000 000000
2016-01-29 03:24:07,0.27,7.63,0.00,13.23,18.99,22.10,15.16,53.76,1007.45,2063.17,1594.95,1735.33,1936.31,600.05,610.73,48.91,0000 0000 0000 0000 000000
2016-01-29 03:29:09,0.42,7.64,0.00,13.16,18.93,22.01,15.08,53.56,1007.57,2063.79,1593.42,1733.84,1934.41,600.07,610.97,48.96,0000 0000 0000 0000 000000
2016-01-29 03:34:10,0.23,7.66,0.00,13.09,18.87,21.91,15.08,53.69,1007.72,2063.98,1591.62,1732.13,1932.49,599.89,611.12,49.01,0000 0000 0000 0000 000000
2016-01-29 03:39:11,0.24,7.67,0.00,13.03,18.81,21.86,15.12,53.80,1007.73,2064.01,1590.20,1730.59,1930.82,600.12,611.42,49.06,0000 0000 0000 0000 000000
2016-01-29 03:44:12,0.16,7.68,0.00,12.98,18.75,21.77,15.07,53.79,1007.73,2064.09,1589.04,1729.49,1929.80,599.76,611.22,49.11,0000 0000 0000 0000 000000
2016-01-29 03:49:13,0.26,7.69,0.00,12.90,18.69,21.65,15.09,53.93,1007.82,2064.47,1587.84,1728.45,1928.53,599.91,611.65,49.16,0000 0000 0000 0000 000000
2016-01-29 03:54:14,0.22,7.71,0.00,12.85,18.64,21.55,15.07,53.76,1007.92,2064.95,1586.63,1727.53,1927.30,599.89,611.68,49.21,0000 0000 0000 0000 000000
2016-01-29 03:59:16,0.20,7.72,0.00,12.80,18.58,21.51,15.16,53.69,1007.89,2064.99,1585.33,1726.20,1925.83,600.04,611.93,49.26,0000 0000 0000 0000 000000
2016-01-29 04:04:17,0.22,7.73,0.00,12.75,18.53,21.39,15.14,53.60,1007.91,2065.00,1583.80,1724.85,1924.40,599.84,611.95,49.31,0000 0000 0000 0000 000000
2016-01-29 04:09:18,0.24,7.74,0.00,12.71,18.47,21.35,15.10,53.63,1008.05,2065.18,1582.44,1723.65,1923.22,599.89,612.17,49.36,0000 0000 0000 0000 000000
2016-01-29 04:14:20,0.31,7.76,0.00,12.64,18.41,21.33,15.13,53.92,1007.94,2065.84,1581.06,1722.20,1921.72,600.08,612.55,49.42,0000 0000 0000 0000 000000
2016-01-29 04:19:21,0.25,7.77,0.00,12.57,18.36,21.23,15.13,53.66,1008.18,2065.98,1579.28,1720.66,1920.11,600.03,612.69,49.47,0000 0000 0000 0000 000000
2016-01-29 04:24:22,0.20,7.78,0.00,12.55,18.30,21.18,15.10,53.58,1008.14,2066.00,1577.90,1719.59,1918.85,600.12,612.80,49.52,0000 0000 0000 0000 000000
2016-01-29 04:29:24,0.22,7.79,0.00,12.52,18.24,21.18,15.12,53.38,1008.29,2066.05,1576.36,1718.33,1917.48,599.81,612.73,49.57,0000 0000 0000 0000 000000
2016-01-29 04:34:25,0.41,7.81,0.00,12.51,18.18,21.12,15.11,53.38,1008.30,2066.67,1574.52,1716.55,1915.73,600.17,613.01,49.62,0000 0000 0000 0000 000000
2016-01-29 04:39:27,0.21,7.83,0.00,12.47,18.12,21.06,15.12,53.29,1008.26,2066.98,1573.02,1715.08,1914.09,600.07,613.00,49.67,0000 0000 0000 0000 000000
2016-01-29 04:44:28,0.17,7.84,0.00,12.45,18.07,21.10,15.08,53.33,1008.30,2066.99,1571.93,1714.04,1912.93,599.92,612.97,49.72,0000 0000 0000 0000 000000
2016-01-29 04:49:29,0.18,7.84,0.00,12.41,18.01,21.12,15.12,52.99,1008.31,2067.03,1570.83,1713.02,1911.85,599.80,612.81,49.77,0000 0000 0000 0000 000000
2016-01-29 04:54:30,0.21,7.85,0.00,12.37,17.97,21.07,15.19,53.37,1008.29,2067.26,1569.57,1712.08,1910.70,600.05,613.15,49.82,0000 0000 0000 0000 000000
2016-01-29 04:59:32,0.32,7.87,0.00,12.33,17.91,21.04,15.20,53.39,1008.11,2067.81,1568.10,1710.77,1909.32,600.04,613.14,49.87,0000 0000 0000 0000 000000
2016-01-29 05:04:33,0.19,7.88,0.00,12.30,17.86,21.04,15.11,53.77,1008.00,2067.97,1566.95,1709.46,1908.03,599.91,613.15,49.92,0000 0000 0000 0000 000000
2016-01-29 05:09:34,0.20,7.89,0.00,12.29,17.81,21.00,15.15,53.61,1008.02,2067.99,1565.69,1708.55,1906.75,599.83,612.98,49.97,0000 0000 0000 0000 000000
2016-01-29 05:14:36,0.22,7.90,0.00,12.26,17.76,20.92,15.13,53.47,1008.06,2068.00,1564.13,1707.25,1905.41,599.83,613.22,50.02,0000 0000 0000 0000 000000
2016-01-29 05:19:37,0.19,7.91,0.00,12.22,17.71,20.89,15.08,53.50,1008.04,2068.06,1562.68,1705.97,1904.20,600.27,613.53,50.07,0000 0000 0000 0000 000000
2016-01-29 05:24:38,0.26,7.92,0.00,12.19,17.67,20.87,15.10,53.17,1008.23,2068.61,1561.55,1704.93,1903.10,599.98,613.43,50.12,0000 0000 0000 0000 000000
2016-01-29 05:29:40,0.22,7.94,0.00,12.17,17.62,20.84,15.19,53.13,1008.32,2068.97,1560.21,1703.84,1901.87,600.26,613.91,50.17,0000 0000 0000 0000 000000
2016-01-29 05:34:41,0.25,7.95,0.00,12.16,17.58,20.79,15.11,53.04,1008.32,2068.99,1558.60,1702.58,1900.55,600.10,613.70,50.22,0000 0000 0000 0000 000000
2016-01-29 05:39:43,0.17,7.96,0.00,12.14,17.53,20.82,15.08,52.79,1008.37,2068.99,1557.30,1701.56,1899.37,599.76,613.46,50.28,0000 0000 0000 0000 000000
2016-01-29 05:44:44,0.22,7.97,0.00,12.13,17.49,20.80,15.15,52.84,1008.39,2069.01,1555.76,1700.39,1897.91,600.04,613.64,50.33,0000 0000 0000 0000 000000
2016-01-29 05:49:45,0.25,7.98,0.00,12.13,17.45,20.79,15.13,52.64,1008.33,2069.13,1554.23,1699.13,1896.55,600.27,613.98,50.38,0000 0000 0000 0000 000000
2016-01-29 05:54:47,0.23,7.99,0.00,12.15,17.42,20.79,15.15,52.62,1008.43,2069.56,1552.97,1698.01,1895.41,600.11,613.84,50.43,0000 0000 0000 0000 000000
2016-01-29 05:59:48,0.31,8.01,0.00,12.14,17.38,20.75,15.17,52.77,1008.51,2069.95,1551.20,1696.77,1893.85,599.91,613.65,50.48,0000 0000 0000 0000 000000
2016-01-29 06:04:50,0.22,8.02,0.00,12.14,17.35,20.75,15.22,52.81,1008.50,2069.98,1549.54,1695.54,1892.51,600.21,613.96,50.53,0000 0000 0000 0000 000000
2016-01-29 06:09:51,0.18,8.03,0.00,12.15,17.31,20.75,15.14,52.98,1008.35,2069.99,1548.28,1694.19,1891.20,599.80,613.44,50.58,0000 0000 0000 0000 000000
2016-01-29 06:14:53,0.21,8.04,0.00,12.15,17.28,20.70,15.11,52.70,1008.43,2069.99,1546.97,1693.05,1889.88,600.20,613.94,50.63,0000 0000 0000 0000 000000
2016-01-29 06:19:54,0.25,8.05,0.00,12.14,17.26,20.72,15.13,52.73,1008.49,2070.01,1545.50,1691.75,1888.58,600.14,613.93,50.68,0000 0000 0000 0000 000000
2016-01-29 06:24:55,0.22,8.07,0.00,12.13,17.23,20.72,15.16,52.76,1008.62,2070.04,1544.06,1690.35,1886.69,599.91,613.70,50.73,0000 0000 0000 0000 000000
2016-01-29 06:29:56,0.18,8.08,0.00,12.13,17.20,20.66,15.09,52.67,1008.63,2070.16,1543.18,1689.14,1885.29,600.06,613.95,50.78,0000 0000 0000 0000 000000
2016-01-29 06:34:58,0.31,8.09,0.00,12.12,17.18,20.65,15.10,52.69,1008.55,2070.43,1541.54,1687.77,1883.83,600.03,613.91,50.83,0000 0000 0000 0000 000000
2016-01-29 06:39:59,0.25,8.10,0.00,12.12,17.15,20.66,15.17,52.56,1008.63,2070.88,1540.35,1686.62,1882.57,599.98,613.94,50.88,0000 0000 0000 0000 000000
2016-01-29 06:45:00,0.18,8.11,0.00,12.12,17.13,20.64,15.17,52.57,1008.55,2070.94,1538.99,1685.60,1881.38,600.01,613.74,50.93,0000 0000 0000 0000 000000
2016-01-29 06:50:02,0.26,8.12,0.00,12.11,17.11,20.64,15.18,52.54,1008.43,2070.98,1537.43,1684.44,1879.86,599.92,613.59,50.98,0000 0000 0000 0000 000000
2016-01-29 06:55:03,0.19,8.14,0.00,12.11,17.09,20.61,15.15,52.67,1008.36,2070.98,1535.91,1683.02,1878.46,600.10,613.91,51.03,0000 0000 0000 0000 000000
2016-01-29 07:00:04,0.19,8.15,0.00,12.09,17.07,20.59,15.15,52.63,1008.34,2070.98,1534.71,1681.85,1877.20,599.92,613.83,51.08,0000 0000 0000 0000 000000
2016-01-29 07:05:05,0.19,8.16,0.00,12.11,17.05,20.59,15.17,52.49,1008.37,2070.99,1533.46,1680.81,1875.95,600.28,614.05,51.13,0000 0000 0000 0000 000000
2016-01-29 07:10:07,0.24,8.17,0.00,12.11,17.03,20.59,15.22,52.61,1008.33,2071.00,1531.75,1679.72,1874.66,600.48,614.19,51.19,0000 0000 0000 0000 000000
2016-01-29 07:15:08,0.20,8.18,0.00,12.09,17.02,20.58,15.15,52.44,1008.29,2071.00,1530.27,1678.58,1873.44,600.16,613.91,51.24,0000 0000 0000 0000 000000
2016-01-29 07:20:09,0.27,8.19,0.00,12.07,16.99,20.57,15.15,52.77,1007.96,2071.01,1528.33,1677.10,1871.71,600.10,613.66,51.29,0000 0000 0000 0000 000000
2016-01-29 07:25:11,0.55,8.22,0.00,12.07,16.98,20.58,15.16,53.28,1007.84,2071.23,1526.22,1673.67,1867.31,599.74,613.24,51.34,0000 0000 0000 0000 000000
2016-01-29 07:30:12,0.11,8.23,0.00,12.07,16.97,20.57,15.18,53.12,1007.79,2071.24,1525.91,1672.61,1866.15,600.26,613.78,51.39,0000 0000 0000 0000 000000
2016-01-29 07:35:14,0.28,8.24,0.00,12.07,16.95,20.55,15.08,53.15,1007.63,2071.52,1524.77,1671.41,1864.72,599.81,613.33,51.44,0000 0000 0000 0000 000000
2016-01-29 07:40:15,0.22,8.25,0.00,12.06,16.94,20.56,15.10,53.17,1007.58,2071.72,1523.44,1670.08,1863.43,599.62,612.96,51.49,0000 0000 0000 0000 000000
2016-01-29 07:45:16,0.36,8.27,0.00,12.01,16.92,20.50,15.15,53.38,1007.46,2071.91,1521.33,1668.33,1861.60,600.23,613.57,51.54,0000 0000 0000 0000 000000
2016-01-29 07:50:18,0.22,8.28,0.00,11.97,16.91,20.50,15.12,53.13,1007.61,2071.96,1519.79,1666.98,1860.02,599.86,613.65,51.59,0000 0000 0000 0000 000000
2016-01-29 07:55:19,0.30,8.30,0.00,11.94,16.89,20.47,15.04,53.24,1007.61,2071.98,1517.83,1665.53,1858.49,599.74,613.54,51.64,0000 0000 0000 0000 000000
2016-01-29 08:00:20,0.22,8.31,0.00,11.94,16.88,20.47,15.16,53.20,1007.60,2071.98,1516.56,1664.08,1857.04,600.07,613.77,51.69,0000 0000 0000 0000 000000
2016-01-29 08:05:21,0.28,8.32,0.00,11.94,16.87,20.46,15.11,53.15,1007.78,2071.98,1515.03,1662.55,1855.35,600.01,613.73,51.74,0000 0000 0000 0000 000000
2016-01-29 08:10:23,0.14,8.33,0.00,11.91,16.84,20.46,15.11,53.01,1007.81,2071.99,1513.81,1661.73,1854.40,599.85,613.70,51.79,0000 0000 0000 0000 000000
2016-01-29 08:15:24,0.19,8.34,0.00,11.90,16.83,20.45,15.11,53.08,1007.83,2071.99,1512.57,1660.75,1853.31,599.75,613.59,51.84,0000 0000 0000 0000 000000
2016-01-29 08:20:26,0.16,8.35,0.00,11.87,16.82,20.45,15.16,53.16,1007.83,2071.99,1511.49,1659.85,1852.19,600.07,614.07,51.89,0000 0000 0000 0000 000000
2016-01-29 08:25:27,0.24,8.36,0.00,11.86,16.80,20.38,15.23,53.23,1007.83,2071.99,1510.20,1658.62,1850.78,600.36,614.34,51.94,0000 0000 0000 0000 000000
2016-01-29 08:30:28,0.24,8.37,0.00,11.86,16.79,20.39,15.11,53.04,1007.83,2072.00,1508.55,1657.18,1849.26,599.82,613.89,51.99,0000 0000 0000 0000 000000
2016-01-29 08:35:30,0.19,8.38,0.00,11.85,16.77,20.36,15.15,52.78,1007.83,2072.01,1507.26,1656.18,1848.27,599.89,614.00,52.05,0000 0000 0000 0000 000000
2016-01-29 08:40:31,0.20,8.39,0.00,11.84,16.76,20.38,15.17,52.49,1007.83,2072.02,1505.84,1655.12,1847.02,600.04,613.98,52.10,0000 0000 0000 0000 000000
2016-01-29 08:45:32,0.20,8.40,0.00,11.84,16.74,20.33,15.08,53.03,1007.82,2072.03,1504.54,1654.02,1845.84,600.02,614.03,52.15,0000 0000 0000 0000 000000
2016-01-29 08:50:33,0.19,8.41,0.00,11.85,16.73,20.34,15.21,52.69,1007.83,2072.05,1503.30,1653.00,1844.72,600.34,614.38,52.20,0000 0000 0000 0000 000000
2016-01-29 08:55:35,0.17,8.42,0.00,11.85,16.72,20.35,15.16,52.73,1007.83,2072.08,1501.96,1652.03,1843.74,600.02,613.90,52.25,0000 0000 0000 0000 000000
2016-01-29 09:00:36,0.22,8.43,0.00,11.85,16.70,20.31,15.15,52.55,1007.84,2072.25,1500.74,1651.07,1842.63,600.05,614.08,52.30,0000 0000 0000 0000 000000
2016-01-29 09:05:37,0.22,8.45,0.00,11.85,16.69,20.28,15.11,52.68,1007.82,2072.56,1499.54,1650.00,1841.54,599.96,613.89,52.35,0000 0000 0000 0000 000000
2016-01-29 09:10:38,0.22,8.46,0.00,11.85,16.67,20.30,15.15,52.58,1007.81,2072.69,1498.18,1649.04,1840.33,599.83,613.73,52.40,0000 0000 0000 0000 000000
2016-01-29 09:15:39,0.15,8.47,0.00,11.85,16.67,20.30,15.08,52.38,1007.83,2072.73,1497.18,1648.07,1839.37,599.63,613.51,52.45,0000 0000 0000 0000 000000
2016-01-29 09:20:41,0.24,8.48,0.00,11.84,16.65,20.32,15.15,52.48,1007.77,2072.85,1495.68,1646.94,1838.08,599.73,613.74,52.50,0000 0000 0000 0000 000000
2016-01-29 09:25:42,0.20,8.49,0.00,11.84,16.64,20.32,15.10,52.38,1007.82,2072.91,1494.42,1645.87,1836.91,599.98,614.02,52.55,0000 0000 0000 0000 000000
2016-01-29 09:30:43,0.22,8.50,0.00,11.85,16.64,20.30,15.11,52.35,1007.83,2072.91,1493.01,1644.77,1835.72,599.77,613.83,52.60,0000 0000 0000 0000 000000
2016-01-29 09:35:44,0.22,8.51,0.00,11.85,16.63,20.30,15.16,52.36,1007.83,2072.94,1491.59,1643.68,1834.50,600.13,614.07,52.65,0000 0000 0000 0000 000000
2016-01-29 09:40:46,0.19,8.52,0.00,11.85,16.62,20.30,15.13,52.37,1007.83,2072.94,1490.18,1642.61,1833.34,599.92,613.74,52.70,0000 0000 0000 0000 000000
2016-01-29 09:45:47,0.22,8.53,0.00,11.84,16.62,20.28,15.13,52.32,1007.83,2072.97,1488.72,1641.55,1832.11,599.89,613.93,52.75,0000 0000 0000 0000 000000
2016-01-29 09:50:48,0.29,8.55,0.00,11.84,16.60,20.32,15.11,52.72,1007.81,2072.97,1486.73,1640.15,1830.56,599.75,613.68,52.80,0000 0000 0000 0000 000000
2016-01-29 09:55:49,0.19,8.56,0.00,11.83,16.59,20.29,15.10,52.46,1007.83,2072.98,1485.35,1639.06,1829.21,599.92,613.91,52.85,0000 0000 0000 0000 000000
2016-01-29 10:00:51,0.17,8.57,0.00,11.85,16.59,20.28,15.21,52.58,1007.83,2072.99,1484.23,1638.03,1828.14,600.34,614.35,52.91,0000 0000 0000 0000 000000
2016-01-29 10:05:52,0.25,8.58,0.00,11.85,16.59,20.27,15.18,52.58,1007.89,2072.99,1482.69,1636.89,1826.84,600.21,614.26,52.96,0000 0000 0000 0000 000000
2016-01-29 10:10:54,0.28,8.59,0.00,11.87,16.59,20.28,15.05,52.40,1007.90,2072.99,1481.02,1635.61,1825.41,599.50,613.58,53.01,0000 0000 0000 0000 000000
2016-01-29 10:15:55,0.21,8.60,0.00,11.89,16.58,20.30,15.12,52.59,1007.92,2072.99,1479.33,1634.42,1824.01,599.64,613.66,53.06,0000 0000 0000 0000 000000
2016-01-29 10:20:56,0.24,8.61,0.00,11.88,16.58,20.30,15.13,52.58,1007.90,2072.99,1477.86,1633.23,1822.67,600.04,614.00,53.11,0000 0000 0000 0000 000000
2016-01-29 10:25:58,0.25,8.63,0.00,11.89,16.57,20.32,15.22,52.85,1007.88,2072.99,1476.19,1631.83,1821.20,600.05,613.97,53.16,0000 0000 0000 0000 000000
2016-01-29 10:30:59,0.24,8.64,0.00,11.92,16.57,20.29,15.08,52.72,1007.90,2072.99,1474.75,1630.64,1819.76,599.85,613.72,53.21,0000 0000 0000 0000 000000
2016-01-29 10:36:00,0.23,8.65,0.00,11.94,16.57,20.28,15.12,52.85,1007.83,2072.99,1473.16,1629.39,1818.37,600.06,613.88,53.26,0000 0000 0000 0000 000000
2016-01-29 10:41:01,0.24,8.66,0.00,11.92,16.57,20.33,15.12,53.01,1007.84,2072.99,1471.53,1628.13,1816.88,599.84,613.81,53.31,0000 0000 0000 0000 000000
2016-01-29 10:46:03,0.24,8.68,0.00,11.90,16.57,20.31,15.16,52.86,1007.85,2072.99,1470.01,1626.76,1815.49,600.00,613.90,53.36,0000 0000 0000 0000 000000
2016-01-29 10:51:04,0.28,8.69,0.00,11.89,16.57,20.28,15.16,52.96,1007.85,2072.99,1468.49,1625.39,1813.90,600.28,614.19,53.41,0000 0000 0000 0000 000000
2016-01-29 10:56:06,0.25,8.70,0.00,11.90,16.57,20.28,15.11,52.92,1007.92,2072.99,1466.76,1624.04,1812.41,600.14,614.10,53.46,0000 0000 0000 0000 000000
2016-01-29 11:01:07,0.30,8.72,0.00,11.90,16.57,20.26,15.09,52.83,1007.95,2072.99,1464.94,1622.65,1810.85,600.07,614.02,53.51,0000 0000 0000 0000 000000
2016-01-29 11:06:09,0.25,8.73,0.00,11.89,16.57,20.31,15.10,52.89,1008.05,2072.99,1463.19,1621.28,1809.40,599.79,613.93,53.56,0000 0000 0000 0000 000000
2016-01-29 11:11:10,0.24,8.75,0.00,11.91,16.57,20.28,15.13,53.04,1007.86,2072.99,1461.44,1619.95,1807.91,600.30,614.11,53.61,0000 0000 0000 0000 000000
2016-01-29 11:16:11,0.30,8.76,0.00,11.90,16.57,20.25,15.14,52.92,1007.83,2072.99,1459.63,1618.58,1806.47,600.07,613.93,53.66,0000 0000 0000 0000 000000
2016-01-29 11:21:13,0.20,8.77,0.00,11.88,16.57,20.30,15.01,52.91,1007.84,2072.99,1458.29,1617.28,1805.06,599.65,613.58,53.71,0000 0000 0000 0000 000000
2016-01-29 11:26:14,0.24,8.78,0.00,11.87,16.57,20.35,15.16,52.77,1007.97,2072.99,1456.80,1616.13,1803.69,599.81,613.91,53.76,0000 0000 0000 0000 000000
2016-01-29 11:31:16,0.27,8.80,0.00,11.88,16.57,20.32,15.21,52.73,1008.26,2072.99,1455.11,1614.84,1802.21,600.33,614.46,53.81,0000 0000 0000 0000 000000
2016-01-29 11:36:17,0.28,8.81,0.00,11.88,16.57,20.32,15.13,52.76,1008.30,2072.99,1453.34,1613.42,1800.54,600.13,614.33,53.87,0000 0000 0000 0000 000000
2016-01-29 11:41:18,0.34,8.83,0.00,11.88,16.57,20.30,15.15,52.52,1008.30,2072.99,1451.32,1611.76,1798.72,599.97,614.14,53.92,0000 0000 0000 0000 000000
2016-01-29 11:46:19,0.31,8.84,0.00,11.89,16.57,20.31,15.07,52.51,1008.09,2072.99,1449.24,1610.16,1796.97,599.70,613.84,53.97,0000 0000 0000 0000 000000
2016-01-29 11:51:20,0.25,8.86,0.00,11.89,16.57,20.25,15.09,52.58,1007.84,2072.98,1447.60,1608.76,1795.57,600.07,614.00,54.02,0000 0000 0000 0000 000000
2016-01-29 11:56:22,0.25,8.87,0.00,11.89,16.57,20.29,15.14,52.38,1007.83,2072.99,1446.12,1607.43,1794.07,600.23,614.19,54.07,0000 0000 0000 0000 000000
2016-01-29 12:01:23,0.19,8.88,0.00,11.91,16.57,20.32,15.09,52.37,1007.78,2072.99,1444.85,1606.34,1792.82,599.62,613.42,54.12,0000 0000 0000 0000 000000
2016-01-29 12:06:25,0.24,8.89,0.00,11.91,16.57,20.31,15.13,52.48,1007.76,2072.98,1443.34,1605.20,1791.54,600.08,613.90,54.17,0000 0000 0000 0000 000000
2016-01-29 12:11:26,0.25,8.91,0.00,11.95,16.57,20.30,15.17,52.80,1007.50,2072.99,1441.66,1603.94,1790.26,600.33,613.85,54.22,0000 0000 0000 0000 000000
2016-01-29 12:16:27,0.26,8.92,0.00,11.95,16.57,20.31,15.17,52.62,1007.60,2072.99,1440.11,1602.54,1788.73,600.15,613.72,54.27,0000 0000 0000 0000 000000
2016-01-29 12:21:28,0.18,8.93,0.00,11.93,16.57,20.26,15.16,52.38,1007.83,2072.99,1438.90,1601.62,1787.69,599.92,613.80,54.32,0000 0000 0000 0000 000000
2016-01-29 12:26:30,0.25,8.94,0.00,11.91,16.57,20.30,15.18,52.52,1007.83,2072.98,1437.35,1600.27,1786.27,600.16,613.86,54.37,0000 0000 0000 0000 000000
2016-01-29 12:31:31,0.25,8.96,0.00,11.93,16.57,20.32,15.21,52.74,1007.83,2072.98,1435.75,1599.11,1784.80,600.53,614.29,54.42,0000 0000 0000 0000 000000
2016-01-29 12:36:32,0.20,8.97,0.00,11.93,16.56,20.31,15.10,52.86,1007.88,2072.98,1434.43,1598.07,1783.56,600.18,614.06,54.47,0000 0000 0000 0000 000000
2016-01-29 12:41:33,0.25,8.98,0.00,11.92,16.56,20.28,15.18,52.45,1008.26,2072.98,1432.94,1596.83,1782.27,600.13,614.28,54.52,0000 0000 0000 0000 000000
2016-01-29 12:46:35,0.19,8.99,0.00,11.93,16.55,20.28,15.11,52.47,1008.54,2072.98,1431.75,1595.70,1780.95,600.09,614.36,54.57,0000 0000 0000 0000 000000
2016-01-29 12:51:36,0.22,9.00,0.00,11.94,16.54,20.29,15.13,52.11,1009.05,2072.98,1430.52,1594.52,1779.80,600.06,614.61,54.62,0000 0000 0000 0000 000000
2016-01-29 12:56:37,0.20,9.01,0.00,11.97,16.54,20.32,15.08,51.94,1008.88,2072.99,1429.17,1593.54,1778.70,600.11,614.40,54.67,0000 0000 0000 0000 000000